Dades meteomassalio
Diari Summary for Gener 9, 2017 Units:  English    Metric   Both
« Previous Day
Next Day »
Diari Semanal Mensual Anual Personalitzat
  Maxima: Minima: Mijana:
Temperatura: 53.8 °F 39.4 °F 45 °F
Rosada: 38.7 °F 34.5 °F 36.5 °F
Humitat: 83 % 53 % 73 %
Velocitat del vent: 11.5 mph 0 mph 0.2 mph
Racha vent: 11.5 mph - -
Vent:- - ENE
Pressio: 30.4 in 30.2 in -
Pluja: 0 in    
Historical Graphs
 
 
Tabular Data for Gener 9, 2017
Time Temperature Dew Point Pressure Wind Wind Speed Wind Gust Humidity Rainfall Rate (Hourly) solar Conditions
00:01 44.1 °F 37.8 °F 30.4 in Calm     78 % 0 in 0.0 W/m2 CLR
00:06 44.1 °F 37.6 °F 30.4 in Calm     78 % 0 in 0.0 W/m2 CLR
00:11 43.9 °F 37.4 °F 30.4 in Calm     78 % 0 in 0.0 W/m2 CLR
00:16 43.7 °F 37.6 °F 30.4 in Calm     79 % 0 in 0.0 W/m2 CLR
00:21 43.5 °F 37.6 °F 30.4 in Calm     79 % 0 in 0.0 W/m2 CLR
00:26 43.3 °F 37.2 °F 30.4 in Calm     79 % 0 in 0.0 W/m2 CLR
00:31 43.2 °F 37 °F 30.4 in Calm     79 % 0 in 0.0 W/m2 CLR
00:36 43.2 °F 37.4 °F 30.4 in Calm     80 % 0 in 0.0 W/m2 CLR
00:41 43.3 °F 37.6 °F 30.4 in Calm     80 % 0 in 0.0 W/m2 CLR
00:46 43.2 °F 37.4 °F 30.4 in Calm     80 % 0 in 0.0 W/m2 CLR
00:51 43.3 °F 37.6 °F 30.4 in Calm     80 % 0 in 0.0 W/m2 CLR
00:56 43.3 °F 37.6 °F 30.4 in Calm     80 % 0 in 0.0 W/m2 CLR
01:01 43.3 °F 37.6 °F 30.4 in Calm     80 % 0 in 0.0 W/m2 CLR
01:06 43.2 °F 37.4 °F 30.4 in Calm     80 % 0 in 0.0 W/m2 CLR
01:11 43.2 °F 37.4 °F 30.4 in Calm     80 % 0 in 0.0 W/m2 CLR
01:16 43.3 °F 37.6 °F 30.4 in Calm     80 % 0 in 0.0 W/m2 CLR
01:21 43.2 °F 37.4 °F 30.4 in Calm     80 % 0 in 0.0 W/m2 CLR
01:26 43.2 °F 37.4 °F 30.4 in Calm     80 % 0 in 0.0 W/m2 CLR
01:31 43.3 °F 37.6 °F 30.4 in Calm     80 % 0 in 0.0 W/m2 CLR
01:36 43.3 °F 37.6 °F 30.4 in Calm     80 % 0 in 0.0 W/m2 CLR
01:41 43.3 °F 37.6 °F 30.4 in Calm     80 % 0 in 0.0 W/m2 CLR
01:46 43.2 °F 37 °F 30.4 in Calm     79 % 0 in 0.0 W/m2 CLR
01:51 43.2 °F 37.2 °F 30.4 in Calm     80 % 0 in 0.0 W/m2 CLR
01:56 43.2 °F 37.2 °F 30.4 in Calm     80 % 0 in 0.0 W/m2 CLR
02:01 43.2 °F 37.4 °F 30.4 in Calm     80 % 0 in 0.0 W/m2 CLR
02:06 43.2 °F 37.4 °F 30.4 in Calm     80 % 0 in 0.0 W/m2 CLR
02:11 43.2 °F 37.4 °F 30.4 in Calm     80 % 0 in 0.0 W/m2 CLR
02:16 43 °F 36.9 °F 30.4 in Calm     79 % 0 in 0.0 W/m2 CLR
02:22 43 °F 36.9 °F 30.4 in Calm     79 % 0 in 0.0 W/m2 CLR
02:27 42.6 °F 36.9 °F 30.4 in Calm     80 % 0 in 0.0 W/m2 CLR
02:32 42.6 °F 36.9 °F 30.4 in Calm     80 % 0 in 0.0 W/m2 CLR
02:37 42.6 °F 36.9 °F 30.4 in Calm     80 % 0 in 0.0 W/m2 CLR
02:42 42.6 °F 36.9 °F 30.4 in Calm     80 % 0 in 0.0 W/m2 CLR
02:47 42.6 °F 37 °F 30.4 in Calm     80 % 0 in 0.0 W/m2 CLR
02:52 42.6 °F 36.9 °F 30.4 in Calm     80 % 0 in 0.0 W/m2 CLR
02:57 42.8 °F 37 °F 30.4 in Calm     80 % 0 in 0.0 W/m2 CLR
03:02 42.6 °F 36.9 °F 30.4 in Calm     80 % 0 in 0.0 W/m2 CLR
03:07 42.4 °F 36.9 °F 30.4 in Calm     80 % 0 in 0.0 W/m2 CLR
03:12 42.4 °F 36.9 °F 30.4 in Calm     80 % 0 in 0.0 W/m2 CLR
03:17 42.4 °F 36.9 °F 30.4 in Calm     80 % 0 in 0.0 W/m2 CLR
03:22 42.4 °F 36.7 °F 30.4 in Calm     80 % 0 in 0.0 W/m2 CLR
03:27 42.4 °F 36.7 °F 30.4 in Calm     80 % 0 in 0.0 W/m2 CLR
03:32 42.3 °F 36.7 °F 30.4 in Calm     80 % 0 in 0.0 W/m2 CLR
03:37 42.4 °F 36.7 °F 30.4 in Calm     80 % 0 in 0.0 W/m2 CLR
03:42 42.3 °F 36.7 °F 30.4 in Calm     80 % 0 in 0.0 W/m2 CLR
03:47 42.4 °F 36.7 °F 30.4 in Calm     80 % 0 in 0.0 W/m2 CLR
03:52 42.3 °F 36.7 °F 30.4 in Calm     80 % 0 in 0.0 W/m2 CLR
03:57 42.3 °F 36.5 °F 30.4 in Calm     80 % 0 in 0.0 W/m2 CLR
04:02 42.3 °F 36.7 °F 30.4 in Calm     80 % 0 in 0.0 W/m2 CLR
04:07 42.3 °F 36.7 °F 30.4 in Calm     80 % 0 in 0.0 W/m2 CLR
04:12 42.4 °F 36.7 °F 30.4 in Calm     80 % 0 in 0.0 W/m2 CLR
04:17 42.4 °F 36.9 °F 30.4 in Calm     80 % 0 in 0.0 W/m2 CLR
04:22 42.4 °F 36.9 °F 30.4 in Calm     80 % 0 in 0.0 W/m2 CLR
04:27 42.4 °F 36.3 °F 30.4 in Calm     79 % 0 in 0.0 W/m2 CLR
04:32 42.3 °F 36.3 °F 30.4 in Calm     79 % 0 in 0.0 W/m2 CLR
04:37 42.1 °F 36.1 °F 30.4 in Calm     79 % 0 in 0.0 W/m2 CLR
04:42 41.7 °F 36 °F 30.4 in Calm     80 % 0 in 0.0 W/m2 CLR
04:47 41.7 °F 36.3 °F 30.4 in Calm     81 % 0 in 0.0 W/m2 CLR
04:52 41.4 °F 35.8 °F 30.4 in Calm     80 % 0 in 0.0 W/m2 CLR
04:57 41.5 °F 36.1 °F 30.4 in Calm     81 % 0 in 0.0 W/m2 CLR
05:02 41.7 °F 36.1 °F 30.4 in Calm     80 % 0 in 0.0 W/m2 CLR
05:07 41.7 °F 36 °F 30.4 in Calm     80 % 0 in 0.0 W/m2 CLR
05:12 41.7 °F 36.3 °F 30.4 in Calm     81 % 0 in 0.0 W/m2 CLR
05:17 41.5 °F 35.8 °F 30.4 in Calm     80 % 0 in 0.0 W/m2 CLR
05:22 41.2 °F 35.8 °F 30.4 in Calm     81 % 0 in 0.0 W/m2 CLR
05:27 41.2 °F 35.8 °F 30.4 in Calm     81 % 0 in 0.0 W/m2 CLR
05:32 41.4 °F 36 °F 30.4 in Calm     81 % 0 in 0.0 W/m2 CLR
05:37 41.4 °F 36 °F 30.4 in Calm     81 % 0 in 0.0 W/m2 CLR
05:42 41.4 °F 36 °F 30.4 in Calm     81 % 0 in 0.0 W/m2 CLR
05:47 41.4 °F 36 °F 30.4 in Calm     81 % 0 in 0.0 W/m2 CLR
05:52 41.4 °F 36 °F 30.4 in Calm     81 % 0 in 0.0 W/m2 CLR
05:57 41.4 °F 36 °F 30.4 in Calm     81 % 0 in 0.0 W/m2 CLR
06:02 41.4 °F 36 °F 30.4 in Calm     81 % 0 in 0.0 W/m2 CLR
06:07 41.2 °F 35.4 °F 30.4 in Calm     80 % 0 in 0.0 W/m2 CLR
06:12 41 °F 35.2 °F 30.4 in Calm     80 % 0 in 0.0 W/m2 CLR
06:17 40.8 °F 35.4 °F 30.4 in Calm     81 % 0 in 0.0 W/m2 CLR
06:22 41 °F 35.6 °F 30.4 in Calm     81 % 0 in 0.0 W/m2 CLR
06:27 41.2 °F 35.8 °F 30.4 in Calm     81 % 0 in 0.0 W/m2 CLR
06:32 41.2 °F 35.4 °F 30.4 in Calm     80 % 0 in 0.0 W/m2 CLR
06:37 41 °F 35.2 °F 30.4 in Calm     80 % 0 in 0.0 W/m2 CLR
06:42 40.8 °F 35.4 °F 30.4 in Calm     81 % 0 in 0.0 W/m2 CLR
06:47 40.8 °F 35.4 °F 30.4 in Calm     81 % 0 in 0.0 W/m2 CLR
06:52 40.6 °F 35.2 °F 30.4 in Calm     81 % 0 in 0.0 W/m2 CLR
06:57 40.5 °F 35.1 °F 30.4 in Calm     81 % 0 in 0.0 W/m2 CLR
07:02 40.3 °F 34.9 °F 30.4 in Calm     81 % 0 in 0.0 W/m2 CLR
07:07 40.3 °F 35.1 °F 30.4 in Calm     82 % 0 in 0.0 W/m2 CLR
07:12 40.3 °F 35.1 °F 30.4 in Calm     82 % 0 in 0.0 W/m2 CLR
07:17 40.3 °F 35.1 °F 30.4 in Calm     82 % 0 in 0.0 W/m2 CLR
07:22 40.3 °F 35.2 °F 30.4 in Calm     82 % 0 in 0.0 W/m2 CLR
07:27 40.3 °F 35.2 °F 30.4 in Calm     82 % 0 in 0.0 W/m2 CLR
07:32 40.1 °F 35.1 °F 30.4 in Calm     82 % 0 in 0.0 W/m2 CLR
07:38 39.9 °F 34.9 °F 30.4 in Calm     82 % 0 in 0.0 W/m2 CLR
07:43 39.9 °F 34.9 °F 30.4 in Calm     82 % 0 in 0.0 W/m2 CLR
07:48 39.9 °F 34.9 °F 30.4 in Calm     82 % 0 in 0.0 W/m2 CLR
07:53 40.3 °F 35.1 °F 30.4 in Calm     82 % 0 in 0.0 W/m2 CLR
07:58 40.1 °F 35.1 °F 30.4 in Calm     82 % 0 in 0.0 W/m2 CLR
08:03 39.9 °F 34.9 °F 30.4 in Calm     82 % 0 in 0.0 W/m2 CLR
08:08 39.6 °F 34.5 °F 30.4 in Calm     82 % 0 in 0.0 W/m2 CLR
08:13 39.4 °F 34.7 °F 30.4 in Calm     83 % 0 in 0.0 W/m2 CLR
08:18 39.4 °F 34.7 °F 30.4 in Calm     83 % 0 in 0.0 W/m2 CLR
08:23 39.4 °F 34.7 °F 30.4 in Calm     83 % 0 in 0.0 W/m2 CLR
08:28 39.6 °F 34.9 °F 30.4 in Calm     83 % 0 in 5.0 W/m2 BKN
08:33 39.7 °F 34.9 °F 30.4 in Calm     82 % 0 in 9.0 W/m2 BKN
08:38 39.7 °F 34.7 °F 30.4 in Calm     82 % 0 in 11.0 W/m2 BKN
08:43 39.7 °F 34.7 °F 30.4 in Calm     82 % 0 in 12.0 W/m2 BKN
08:44 39.7 °F 34.7 °F 30.4 in Calm     82 % 0 in 12.0 W/m2 BKN
08:49 39.7 °F 35.1 °F 30.4 in Calm     83 % 0 in 14.0 W/m2 BKN
08:54 39.9 °F 34.9 °F 30.4 in Calm     82 % 0 in 16.0 W/m2 BKN
08:59 40.1 °F 35.1 °F 30.4 in Calm     82 % 0 in 21.0 W/m2 BKN
09:04 40.3 °F 35.1 °F 30.4 in Calm     82 % 0 in 30.0 W/m2 BKN
09:09 40.5 °F 35.4 °F 30.4 in Calm     82 % 0 in 42.0 W/m2 BKN
09:14 40.8 °F 35.4 °F 30.4 in Calm     81 % 0 in 51.0 W/m2 BKN
09:19 41 °F 35.6 °F 30.4 in Calm     81 % 0 in 62.0 W/m2 BKN
09:24 41.4 °F 35.6 °F 30.4 in Calm     80 % 0 in 72.0 W/m2 BKN
09:29 41.5 °F 36 °F 30.4 in Calm     80 % 0 in 81.0 W/m2 BKN
09:34 41.9 °F 36.1 °F 30.4 in Calm     80 % 0 in 84.0 W/m2 BKN
09:39 42.3 °F 36.1 °F 30.4 in Calm     79 % 0 in 113.0 W/m2 BKN
09:45 42.8 °F 36.3 °F 30.4 in Calm     78 % 0 in 127.0 W/m2 BKN
09:50 43.3 °F 36.7 °F 30.4 in Calm     77 % 0 in 141.0 W/m2 BKN
09:55 43.9 °F 36.7 °F 30.4 in Calm     76 % 0 in 156.0 W/m2 BKN
10:00 44.2 °F 36.9 °F 30.4 in Calm     75 % 0 in 171.0 W/m2 BKN
10:05 44.6 °F 36.9 °F 30.4 in Calm     74 % 0 in 167.0 W/m2 SCT
10:10 44.8 °F 37 °F 30.4 in Calm     74 % 0 in 199.0 W/m2 SCT
10:15 45.1 °F 37 °F 30.4 in Calm     73 % 0 in 144.0 W/m2 SCT
10:20 45.3 °F 37.2 °F 30.4 in Calm     73 % 0 in 229.0 W/m2 SCT
10:25 45.3 °F 36.9 °F 30.4 in Calm     72 % 0 in 243.0 W/m2 SCT
10:30 45.7 °F 37 °F 30.4 in Calm     72 % 0 in 255.0 W/m2 SCT
10:35 45.9 °F 37.4 °F 30.4 in Calm     72 % 0 in 265.0 W/m2 SCT
10:40 46 °F 37.2 °F 30.4 in Calm     71 % 0 in 276.0 W/m2 SCT
10:45 46.2 °F 37.4 °F 30.4 in Calm     71 % 0 in 288.0 W/m2 SCT
10:50 46.2 °F 37.4 °F 30.4 in Calm     71 % 0 in 297.0 W/m2 SCT
10:55 46.6 °F 37.6 °F 30.4 in Calm     71 % 0 in 308.0 W/m2 FEW
11:00 46.6 °F 37.2 °F 30.4 in Calm     70 % 0 in 316.0 W/m2 FEW
11:05 46.8 °F 37.4 °F 30.4 in Calm     70 % 0 in 327.0 W/m2 FEW
11:10 46.8 °F 37.2 °F 30.4 in Calm     69 % 0 in 336.0 W/m2 FEW
11:15 46.8 °F 37.2 °F 30.4 in Calm     69 % 0 in 343.0 W/m2 FEW
11:20 47.1 °F 37.4 °F 30.4 in Calm     69 % 0 in 350.0 W/m2 FEW
11:25 47.3 °F 37.2 °F 30.4 in Calm     68 % 0 in 359.0 W/m2 FEW
11:30 47.5 °F 37.6 °F 30.4 in Calm     68 % 0 in 366.0 W/m2 FEW
11:35 47.7 °F 37.6 °F 30.4 in Calm     68 % 0 in 373.0 W/m2 FEW
11:40 47.8 °F 37 °F 30.4 in Calm     66 % 0 in 380.0 W/m2 FEW
11:45 47.8 °F 37 °F 30.4 in Calm     66 % 0 in 385.0 W/m2 FEW
11:50 48 °F 37.9 °F 30.4 in Calm     68 % 0 in 394.0 W/m2 FEW
11:55 48 °F 37.8 °F 30.4 in Calm     67 % 0 in 399.0 W/m2 FEW
12:00 48 °F 37.2 °F 30.4 in Calm     66 % 0 in 403.0 W/m2 FEW
12:05 48.4 °F 37.9 °F 30.4 in Calm     67 % 0 in 408.0 W/m2 FEW
12:10 48.6 °F 37.2 °F 30.4 in Calm     65 % 0 in 413.0 W/m2 FEW
12:15 48.6 °F 37.8 °F 30.4 in Calm     66 % 0 in 418.0 W/m2 CLR
12:20 48.7 °F 38.1 °F 30.4 in Calm     67 % 0 in 422.0 W/m2 CLR
12:26 49.1 °F 38.1 °F 30.4 in Calm     66 % 0 in 425.0 W/m2 CLR
12:31 49.3 °F 37.9 °F 30.4 in Calm     65 % 0 in 429.0 W/m2 CLR
12:36 49.3 °F 37.9 °F 30.4 in Calm     65 % 0 in 432.0 W/m2 CLR
12:41 49.3 °F 37.9 °F 30.4 in Calm     65 % 0 in 434.0 W/m2 CLR
12:46 49.8 °F 38.1 °F 30.4 in Calm     64 % 0 in 438.0 W/m2 CLR
12:51 49.8 °F 38.1 °F 30.4 in Calm     64 % 0 in 438.0 W/m2 CLR
12:56 49.8 °F 38.1 °F 30.4 in Calm     64 % 0 in 439.0 W/m2 CLR
13:01 49.8 °F 37.2 °F 30.4 in Calm     62 % 0 in 439.0 W/m2 CLR
13:06 49.8 °F 37.2 °F 30.3 in Calm     62 % 0 in 441.0 W/m2 CLR
13:11 49.6 °F 37.6 °F 30.3 in Calm     63 % 0 in 441.0 W/m2 CLR
13:16 50.2 °F 38.5 °F 30.3 in Calm     64 % 0 in 441.0 W/m2 CLR
13:21 50.4 °F 38.3 °F 30.3 in Calm     63 % 0 in 441.0 W/m2 CLR
13:26 50.7 °F 37.8 °F 30.3 in Calm     61 % 0 in 439.0 W/m2 CLR
13:31 51.1 °F 38.5 °F 30.3 in Calm     62 % 0 in 438.0 W/m2 CLR
13:36 51.1 °F 38.1 °F 30.3 in Calm     61 % 0 in 438.0 W/m2 CLR
13:41 51.1 °F 38.5 °F 30.3 in Calm     62 % 0 in 436.0 W/m2 CLR
13:46 51.1 °F 37.8 °F 30.3 in Calm     60 % 0 in 434.0 W/m2 CLR
13:51 51.3 °F 37.9 °F 30.3 in Calm     60 % 0 in 431.0 W/m2 CLR
13:56 51.4 °F 37.6 °F 30.3 in Calm     59 % 0 in 427.0 W/m2 CLR
14:01 51.4 °F 37.9 °F 30.3 in Calm     60 % 0 in 424.0 W/m2 CLR
14:06 51.6 °F 38.7 °F 30.3 in Calm     61 % 0 in 420.0 W/m2 CLR
14:16 51.6 °F 37.8 °F 30.3 in Calm     59 % 0 in 410.0 W/m2 CLR
14:21 52 °F 37.8 °F 30.3 in Calm     58 % 0 in 404.0 W/m2 CLR
14:26 52.2 °F 37.9 °F 30.3 in Calm     58 % 0 in 399.0 W/m2 CLR
14:31 52.3 °F 37.9 °F 30.3 in Calm     58 % 0 in 394.0 W/m2 CLR
14:36 52.5 °F 37.8 °F 30.3 in Calm     57 % 0 in 388.0 W/m2 CLR
14:41 52.9 °F 37.9 °F 30.3 in Calm     57 % 0 in 383.0 W/m2 CLR
14:46 52.9 °F 37.6 °F 30.3 in Calm     56 % 0 in 374.0 W/m2 CLR
14:51 52.9 °F 37.9 °F 30.3 in Calm     57 % 0 in 369.0 W/m2 CLR
14:56 52.9 °F 37.9 °F 30.3 in Calm     57 % 0 in 362.0 W/m2 CLR
15:01 52.7 °F 37.4 °F 30.3 in Calm     56 % 0 in 353.0 W/m2 CLR
15:06 53.1 °F 38.3 °F 30.3 in Calm     57 % 0 in 343.0 W/m2 CLR
15:11 53.1 °F 37.8 °F 30.3 in Calm     56 % 0 in 336.0 W/m2 CLR
15:16 53.1 °F 38.3 °F 30.3 in Calm     57 % 0 in 327.0 W/m2 CLR
15:21 52.9 °F 37.9 °F 30.3 in Calm     57 % 0 in 316.0 W/m2 CLR
15:26 52.7 °F 37.9 °F 30.3 in Calm     57 % 0 in 308.0 W/m2 CLR
15:31 53.1 °F 37.8 °F 30.3 in Calm     56 % 0 in 297.0 W/m2 CLR
15:36 53.4 °F 38.1 °F 30.3 in Calm     56 % 0 in 287.0 W/m2 CLR
15:41 53.2 °F 37.9 °F 30.3 in Calm     56 % 0 in 274.0 W/m2 CLR
15:46 53.1 °F 38.3 °F 30.3 in Calm     57 % 0 in 264.0 W/m2 CLR
15:51 53.4 °F 38.7 °F 30.3 in Calm     57 % 0 in 250.0 W/m2 CLR
15:56 53.8 °F 37.9 °F 30.3 in Calm     55 % 0 in 239.0 W/m2 CLR
16:01 53.6 °F 37.2 °F 30.3 in Calm     54 % 0 in 223.0 W/m2 CLR
16:06 53.6 °F 36.9 °F 30.3 in Calm     53 % 0 in 211.0 W/m2 CLR
16:12 53.4 °F 38.1 °F 30.3 in Calm     56 % 0 in 197.0 W/m2 CLR
16:17 53.2 °F 37.9 °F 30.3 in Calm     56 % 0 in 183.0 W/m2 CLR
16:22 53.1 °F 38.3 °F 30.3 in Calm     57 % 0 in 169.0 W/m2 CLR
16:27 53.2 °F 37.9 °F 30.3 in Calm     56 % 0 in 153.0 W/m2 CLR
16:32 53.2 °F 38.5 °F 30.3 in Calm     57 % 0 in 139.0 W/m2 CLR
16:37 53.1 °F 38.3 °F 30.3 in Calm     57 % 0 in 125.0 W/m2 CLR
16:42 52.9 °F 37.9 °F 30.3 in Calm     57 % 0 in 113.0 W/m2 CLR
16:47 52.5 °F 38.1 °F 30.3 in Calm     58 % 0 in 97.0 W/m2 CLR
16:52 52.5 °F 38.1 °F 30.3 in Calm     58 % 0 in 84.0 W/m2 CLR
16:57 52.5 °F 38.1 °F 30.3 in Calm     58 % 0 in 62.0 W/m2 CLR
17:02 52.3 °F 37.9 °F 30.3 in Calm     58 % 0 in 46.0 W/m2 CLR
17:07 52.3 °F 38.5 °F 30.3 in Calm     59 % 0 in 46.0 W/m2 OVC
17:12 52 °F 38.1 °F 30.3 in Calm     59 % 0 in 35.0 W/m2 OVC
17:17 51.8 °F 37.9 °F 30.3 in Calm     59 % 0 in 26.0 W/m2 OVC
17:22 51.4 °F 37.6 °F 30.3 in Calm     59 % 0 in 19.0 W/m2 OVC
17:27 51.1 °F 37.8 °F 30.3 in Calm     60 % 0 in 12.0 W/m2 OVC
17:32 50.5 °F 37.6 °F 30.3 in Calm     61 % 0 in 12.0 W/m2 OVC
17:37 50.2 °F 37.2 °F 30.3 in Calm     61 % 0 in 11.0 W/m2 OVC
17:42 49.8 °F 37 °F 30.3 in Calm     61 % 0 in 9.0 W/m2 OVC
17:47 49.6 °F 37.2 °F 30.3 in Calm     62 % 0 in 5.0 W/m2 OVC
17:52 48.9 °F 36.9 °F 30.3 in Calm     63 % 0 in 0.0 W/m2 CLR
17:57 48.6 °F 36.7 °F 30.3 in Calm     63 % 0 in 0.0 W/m2 CLR
18:02 48 °F 36.9 °F 30.3 in Calm     65 % 0 in 0.0 W/m2 CLR
18:07 47.7 °F 36.9 °F 30.3 in Calm     66 % 0 in 0.0 W/m2 CLR
18:12 47.3 °F 36.5 °F 30.3 in Calm     66 % 0 in 0.0 W/m2 CLR
18:17 47.1 °F 36.7 °F 30.3 in Calm     67 % 0 in 0.0 W/m2 CLR
18:22 46.8 °F 36.3 °F 30.3 in Calm     67 % 0 in 0.0 W/m2 CLR
18:27 46.9 °F 36.7 °F 30.3 in Calm     67 % 0 in 0.0 W/m2 CLR
18:32 46.6 °F 36.5 °F 30.3 in Calm     68 % 0 in 0.0 W/m2 CLR
18:37 46 °F 36.1 °F 30.3 in Calm     68 % 0 in 0.0 W/m2 CLR
18:42 45.7 °F 36 °F 30.3 in Calm     69 % 0 in 0.0 W/m2 CLR
18:47 45 °F 35.8 °F 30.3 in Calm     70 % 0 in 0.0 W/m2 CLR
18:52 44.4 °F 35.6 °F 30.3 in Calm     71 % 0 in 0.0 W/m2 CLR
18:57 43.7 °F 35.2 °F 30.3 in Calm     72 % 0 in 0.0 W/m2 CLR
19:02 43.2 °F 35.1 °F 30.3 in Calm     73 % 0 in 0.0 W/m2 CLR
19:07 42.6 °F 34.9 °F 30.3 in Calm     74 % 0 in 0.0 W/m2 CLR
19:12 42.1 °F 34.7 °F 30.3 in Calm     75 % 0 in 0.0 W/m2 CLR
19:17 42.4 °F 36.1 °F 30.3 in Calm     78 % 0 in 0.0 W/m2 CLR
19:22 43.2 °F 35.8 °F 30.3 in Calm     75 % 0 in 0.0 W/m2 CLR
19:27 43.5 °F 36.1 °F 30.3 in Calm     75 % 0 in 0.0 W/m2 CLR
19:32 43.3 °F 35.6 °F 30.3 in Calm     74 % 0 in 0.0 W/m2 CLR
19:37 42.8 °F 35.1 °F 30.3 in Calm     74 % 0 in 0.0 W/m2 CLR
19:42 42.3 °F 34.9 °F 30.3 in Calm     75 % 0 in 0.0 W/m2 CLR
19:47 42.1 °F 35.1 °F 30.3 in Calm     76 % 0 in 0.0 W/m2 CLR
19:52 41.9 °F 35.2 °F 30.3 in Calm     77 % 0 in 0.0 W/m2 CLR
19:57 41.9 °F 35.4 °F 30.3 in Calm     78 % 0 in 0.0 W/m2 CLR
20:02 41.9 °F 35.2 °F 30.3 in Calm     77 % 0 in 0.0 W/m2 CLR
20:07 41.5 °F 34.9 °F 30.3 in Calm     77 % 0 in 0.0 W/m2 CLR
20:12 41.4 °F 35.1 °F 30.3 in Calm     78 % 0 in 0.0 W/m2 CLR
20:17 41.2 °F 35.2 °F 30.3 in Calm     79 % 0 in 0.0 W/m2 CLR
20:22 41.4 °F 35.1 °F 30.3 in Calm     78 % 0 in 0.0 W/m2 CLR
20:27 41.5 °F 35.2 °F 30.3 in Calm     78 % 0 in 0.0 W/m2 CLR
20:32 41.7 °F 35.1 °F 30.3 in Calm     77 % 0 in 0.0 W/m2 CLR
20:37 42.1 °F 35.4 °F 30.3 in Calm     77 % 0 in 0.0 W/m2 CLR
20:42 42.3 °F 35.4 °F 30.3 in Calm     77 % 0 in 0.0 W/m2 CLR
20:47 42.6 °F 35.6 °F 30.3 in Calm     76 % 0 in 0.0 W/m2 CLR
20:52 43 °F 35.6 °F 30.3 in Calm     75 % 0 in 0.0 W/m2 CLR
20:57 43.2 °F 35.4 °F 30.3 in Calm     74 % 0 in 0.0 W/m2 CLR
21:02 43.3 °F 35.8 °F 30.3 in Calm     74 % 0 in 0.0 W/m2 CLR
21:07 43.3 °F 35.8 °F 30.3 in Calm     74 % 0 in 0.0 W/m2 CLR
21:12 43.5 °F 35.4 °F 30.3 in Calm     73 % 0 in 0.0 W/m2 CLR
21:17 43.9 °F 36.1 °F 30.3 in ENE 3.5 mph 3.5 mph 74 % 0 in 0.0 W/m2 CLR
21:22 45 °F 36.3 °F 30.3 in ENE 5.8 mph 5.8 mph 72 % 0 in 0.0 W/m2 CLR
21:27 45.5 °F 36.7 °F 30.3 in ENE 4.6 mph 4.6 mph 71 % 0 in 0.0 W/m2 CLR
21:32 45.5 °F 36.3 °F 30.3 in Calm     70 % 0 in 0.0 W/m2 CLR
21:37 45.1 °F 36 °F 30.3 in ENE 3.5 mph 3.5 mph 70 % 0 in 0.0 W/m2 CLR
21:42 44.8 °F 36 °F 30.3 in ENE 1.2 mph   71 % 0 in 0.0 W/m2 CLR
21:47 44.8 °F 36.3 °F 30.3 in ENE 11.5 mph 11.5 mph 72 % 0 in 0.0 W/m2 CLR
21:52 45.5 °F 36.7 °F 30.3 in ENE 11.5 mph 11.5 mph 71 % 0 in 0.0 W/m2 CLR
21:57 45.7 °F 36.3 °F 30.3 in ENE 10.4 mph 10.4 mph 70 % 0 in 0.0 W/m2 CLR
22:02 45.7 °F 36.7 °F 30.3 in ENE 4 mph 4 mph 71 % 0 in 0.0 W/m2 CLR
22:07 45.5 °F 36.7 °F 30.3 in ENE 4.6 mph 4.6 mph 71 % 0 in 0.0 W/m2 CLR
22:13 45.1 °F 36.3 °F 30.3 in ENE 3.5 mph 3.5 mph 71 % 0 in 0.0 W/m2 CLR
22:18 44.8 °F 36 °F 30.3 in ENE 2.3 mph 2.3 mph 71 % 0 in 0.0 W/m2 CLR
22:23 44.4 °F 36 °F 30.2 in Calm     72 % 0 in 0.0 W/m2 CLR
22:28 44.1 °F 35.6 °F 30.2 in Calm     72 % 0 in 0.0 W/m2 CLR
22:33 43.5 °F 35.4 °F 30.2 in Calm     73 % 0 in 0.0 W/m2 CLR
22:38 43.3 °F 35.8 °F 30.2 in Calm     74 % 0 in 0.0 W/m2 CLR
22:43 43.2 °F 35.4 °F 30.2 in Calm     74 % 0 in 0.0 W/m2 CLR
22:48 42.8 °F 35.4 °F 30.2 in Calm     75 % 0 in 0.0 W/m2 CLR
22:53 42.6 °F 35.8 °F 30.2 in Calm     76 % 0 in 0.0 W/m2 CLR
22:58 42.4 °F 35.4 °F 30.2 in ENE 2.3 mph   76 % 0 in 0.0 W/m2 CLR
23:03 42.4 °F 35.8 °F 30.2 in ENE 6.9 mph   77 % 0 in 0.0 W/m2 CLR
23:08 42.6 °F 35.6 °F 30.2 in Calm     76 % 0 in 0.0 W/m2 CLR
23:13 42.4 °F 35.4 °F 30.2 in Calm     76 % 0 in 0.0 W/m2 CLR
23:18 42.4 °F 35.8 °F 30.2 in Calm     77 % 0 in 0.0 W/m2 CLR
23:23 42.3 °F 35.6 °F 30.2 in Calm     77 % 0 in 0.0 W/m2 CLR
23:28 42.1 °F 35.2 °F 30.2 in Calm     77 % 0 in 0.0 W/m2 CLR
23:33 41.7 °F 35.1 °F 30.2 in Calm     77 % 0 in 0.0 W/m2 CLR
23:38 41.7 °F 35.2 °F 30.2 in Calm     78 % 0 in 0.0 W/m2 CLR
23:43 41.7 °F 35.2 °F 30.2 in Calm     78 % 0 in 0.0 W/m2 CLR
23:48 41.7 °F 35.2 °F 30.2 in Calm     78 % 0 in 0.0 W/m2 CLR
23:53 41.7 °F 35.2 °F 30.2 in Calm     78 % 0 in 0.0 W/m2 CLR
23:58 41.5 °F 35.2 °F 30.2 in Calm     78 % 0 in 0.0 W/m2 CLR
Lo Temps de Massalio
Compliments of Weather Underground - 1.25 mb